Flag for Germany Weather past 2 weeks in Schwedt/Oder, Brandenburg, Germany

Now
52 °F

Clear.


Feels Like: 49 °F
Forecast: 56 / 65 °F
Wind: 7 mph from Southwest

Location: Szczecin Airport

Current Time: Jul 30, 2015 at 12:54:38 AM

Latest Report: Jul 30, 2015 at 12:00 AM


Visibility: 10 mi

Pressure: 29.65 "Hg

Humidity: 88%

Dew point: 48 °F

Location of Schwedt/OderLocation

Historic Weather in Schwedt/Oder — Graph

°F

Schwedt/Oder temperature yesterday

Maximum temperature yesterday: 68 °F (at 2:30 PM)
Minimum temperature yesterday: 52 °F (at 11:00 PM)
Average temperature yesterday: 59 °F

Past Weeks' High & Low Weather Summary

 TemperatureHumidityPressure
High81 °F (Jul 22, 2:00 PM)100% (Jul 15, 1:00 AM)30.09 "Hg (Jul 15, 1:00 AM)
Low48 °F (Jul 27, 1:00 AM)38% (Jul 24, 4:00 PM)29.50 "Hg (Jul 25, 5:30 PM)
Average64 °F73%29.84 "Hg
* Reported Jul 14 11:00 PM — Jul 29 11:30 PM, Schwedt/Oder, Weather by CustomWeather, © 2015

Note: Actual official high and low records may vary slightly from our data, if they occured in-between our weather recording intervals... More about our weather records

Advertising

Schwedt/Oder weather history for previous 24 hours

 ConditionsComfort  
Time TempWeatherWind HumidityBarometerVisibility
11:30 PM
Wed, Jul 29
52 °FClear.6 mph94%29.68 "Hg10 mi
11:00 PM52 °FClear.8 mph94%29.68 "Hg10 mi
10:30 PM54 °FClear.7 mph88%29.65 "Hg10 mi
10:00 PM54 °FSunny.8 mph88%29.65 "Hg10 mi
9:30 PM54 °FSunny.5 mph88%29.65 "Hg10 mi
9:00 PM54 °FPassing clouds.6 mph88%29.65 "HgN/A
8:30 PM54 °FSprinkles. Passing clouds.5 mph88%29.65 "HgN/A
8:00 PM54 °FSprinkles. Scattered clouds.5 mph88%29.65 "HgN/A
7:30 PM55 °FSprinkles. Scattered clouds.10 mph82%29.68 "HgN/A
7:00 PM57 °FPassing clouds.16 mph77%29.65 "HgN/A
6:30 PM54 °FScattered clouds.2 mph88%29.65 "HgN/A
6:00 PM55 °FThunderstorms. Broken clouds.18 mph82%29.68 "HgN/A
5:30 PM64 °FScattered clouds.7 mph56%29.62 "HgN/A
5:00 PM63 °FPassing clouds.6 mph68%29.65 "HgN/A
4:30 PM61 °FSprinkles. Partly sunny.13 mph68%29.65 "HgN/A
4:00 PM61 °FPartly sunny.7 mph63%29.62 "HgN/A
3:30 PM66 °FScattered clouds.12 mph46%29.65 "HgN/A
3:00 PM68 °FPassing clouds.8 mph49%29.62 "HgN/A
2:30 PM68 °FPassing clouds.10 mph53%29.62 "HgN/A
2:00 PM64 °FScattered clouds.12 mph56%29.65 "HgN/A
1:30 PM64 °FScattered clouds.15 mph56%29.65 "HgN/A
1:00 PM64 °FScattered clouds.14 mph56%29.65 "HgN/A
12:30 PM64 °FScattered clouds.13 mph60%29.65 "HgN/A
12:00 PM64 °FScattered clouds.14 mph60%29.65 "HgN/A
11:30 AM63 °FPartly sunny.12 mph64%29.65 "HgN/A
11:00 AM63 °FPassing clouds.14 mph64%29.65 "HgN/A
10:30 AM61 °FScattered clouds.10 mph68%29.65 "HgN/A
10:00 AM61 °FPartly sunny.10 mph68%29.65 "HgN/A
9:30 AM61 °FPassing clouds.12 mph68%29.65 "HgN/A
9:00 AM59 °FScattered clouds.12 mph72%29.65 "HgN/A
8:30 AM59 °FPassing clouds.10 mph72%29.65 "HgN/A
8:00 AM59 °FPassing clouds.10 mph72%29.65 "HgN/A
7:30 AM57 °FSunny.9 mph77%29.65 "Hg10 mi
7:00 AM57 °FPassing clouds.8 mph77%29.65 "HgN/A
6:00 AM57 °FPassing clouds.8 mph77%29.65 "HgN/A
5:00 AM57 °FClear.7 mph82%29.65 "Hg10 mi
4:30 AM57 °FClear.8 mph82%29.65 "Hg10 mi
4:00 AM59 °FClear.8 mph77%29.65 "Hg10 mi
3:30 AM59 °FClear.9 mph77%29.65 "Hg10 mi
3:00 AM59 °FClear.9 mph77%29.65 "Hg10 mi
2:30 AM59 °FPassing clouds.10 mph77%29.65 "HgN/A
2:00 AM59 °FClear.10 mph77%29.65 "Hg10 mi
1:30 AM59 °FPassing clouds.9 mph77%29.65 "HgN/A
1:00 AM57 °FPassing clouds.5 mph82%29.65 "HgN/A
12:30 AM57 °FPassing clouds.5 mph82%29.65 "HgN/A
12:00 AM59 °FPassing clouds.7 mph77%29.65 "HgN/A
Weather by CustomWeather, © 2015

See weather overviewHow to use our weather pages